Szeged, Hungary

4:35 AM CEST on October 17, 2017 (GMT +0200)
Szeged

Weather History for LHUD - September, 2012

Change the Weather History Date:

Saturday, September 15, 2012

  Actual Average (LRAR) Record (LRAR)
Temperature  
Mean Temperature 64 °F -  
Max Temperature 73 °F 69 °F 86 °F (2004)
Min Temperature 51 °F 46 °F 42 °F (1998)
Degree Days  
Heating Degree Days 1    
Growing Degree Days 14 (Base 50)    
Moisture  
Dew Point 50 °F    
Average Humidity 62    
Maximum Humidity 88    
Minimum Humidity 29    
Precipitation  
Precipitation 0.00 in 0.04 in - ()
Sea Level Pressure  
Sea Level Pressure 29.92 in    
Wind  
Wind Speed 8 mph ()    
Max Wind Speed 18 mph    
Max Gust Speed 32 mph    
Visibility 8.4 miles    
Events Rain    
Averages and records for this station are not official NWS values.
T = Trace of Precipitation, MM = Missing Value Source: Averaged Metar Reports

Daily Weather History Graph

Daily Weather History Graph

Search for Another Location

Airport or City:

Trip Planner

Search our weather history database for the weather conditions in past years. The results will help you decide how hot, cold, wet, or windy it might be!

Date:

Astronomy

Sep. 15, 2012 Rise Set
Actual Time 6:17 AM CEST 6:50 PM CEST
Civil Twilight 5:47 AM CEST 7:20 PM CEST
Nautical Twilight 5:11 AM CEST 7:56 PM CEST
Astronomical Twilight 4:34 AM CEST 8:33 PM CEST
Moon 5:28 AM CEST (9/15) 6:08 PM CEST (9/15)
Length of Visible Light 13h 33m
Length of Day
12h 32m
Waning Crescent, 1% of the Moon is Illuminated
Sep 15
Waning Crescent
Sep 16
New
Sep 22
First Quarter
Sep 30
Full
Oct 8
Last Quarter

Hourly Weather History & Observations

Time (CEST) Temp. Dew Point Humidity Pressure Visibility Wind Dir Wind Speed Gust Speed Precip Events Conditions
12:45 AM 62.6 °F 57.2 °F 82% 29.83 in 6.2 mi NW 6.9 mph - N/A   Mostly Cloudy
1:45 AM 60.8 °F 57.2 °F 88% 29.86 in 6.2 mi NW 6.9 mph - N/A Rain Light Rain
2:00 AM 62 °F 56 °F 76% 29.84 in 16 mi NW 6.7 mph - - Rain Light Rain
2:45 AM 60.8 °F 55.4 °F 82% 29.83 in 6.2 mi NNW 6.9 mph - N/A   Mostly Cloudy
3:45 AM 60.8 °F 55.4 °F 82% 29.83 in 6.2 mi NW 4.6 mph - N/A   Mostly Cloudy
4:45 AM 59.0 °F 55.4 °F 88% 29.83 in 6.2 mi NW 6.9 mph - N/A   Mostly Cloudy
6:15 AM 59.0 °F 53.6 °F 82% 29.86 in 6.2 mi NNW 8.1 mph - N/A   Mostly Cloudy
6:45 AM 59.0 °F 53.6 °F 82% 29.86 in 6.2 mi NW 9.2 mph - N/A   Mostly Cloudy
7:15 AM 59.0 °F 51.8 °F 77% 29.86 in 6.2 mi NW 11.5 mph - N/A   Overcast
7:45 AM 59.0 °F 51.8 °F 77% 29.89 in 6.2 mi NW 11.5 mph - N/A   Overcast
8:00 AM 59 °F 51 °F 67% 29.88 in 19 mi NW 11.2 mph - -   Partly Cloudy
8:15 AM 59.0 °F 51.8 °F 77% 29.89 in 6.2 mi NW 13.8 mph - N/A   Overcast
8:45 AM 59.0 °F 50.0 °F 72% 29.89 in 6.2 mi NW 12.7 mph - N/A   Overcast
9:15 AM 59.0 °F 50.0 °F 72% 29.89 in 6.2 mi NW 13.8 mph - N/A   Overcast
9:45 AM 59.0 °F 50.0 °F 72% 29.92 in 6.2 mi NW 13.8 mph - N/A   Mostly Cloudy
10:15 AM 60.8 °F 50.0 °F 68% 29.92 in 6.2 mi NW 11.5 mph - N/A   Mostly Cloudy
10:45 AM 60.8 °F 50.0 °F 68% 29.92 in 6.2 mi NW 12.7 mph - N/A   Mostly Cloudy
11:15 AM 62.6 °F 48.2 °F 59% 29.92 in 6.2 mi NW 12.7 mph - N/A   Mostly Cloudy
11:45 AM 64.4 °F 48.2 °F 56% 29.92 in 6.2 mi WNW 15.0 mph - N/A   Mostly Cloudy
12:15 PM 66.2 °F 48.2 °F 52% 29.92 in 6.2 mi WNW 10.4 mph - N/A   Scattered Clouds
12:45 PM 66.2 °F 48.2 °F 52% 29.92 in - NW 10.4 mph - N/A   Clear
1:15 PM 68.0 °F 48.2 °F 49% 29.92 in - WNW 5.8 mph - N/A   Clear
1:45 PM 73.4 °F 46.4 °F 38% 29.92 in - NW 11.5 mph - N/A   Clear
2:00 PM 72 °F 46 °F 29% 29.90 in 19 mi NW 11.2 mph - -   Partly Cloudy
2:15 PM 71.6 °F 46.4 °F 41% 29.92 in - NW 11.5 mph - N/A   Clear
2:37 PM 73.4 °F 46.4 °F 38% 29.92 in - NW 13.8 mph 32.2 mph N/A   Unknown
2:40 PM 73.4 °F 46.4 °F 38% 29.92 in - NW 15.0 mph 32.2 mph N/A   Clear
2:45 PM 73.4 °F 46.4 °F 38% 29.92 in - NW 16.1 mph 32.2 mph N/A   Clear
3:15 PM 73.4 °F 46.4 °F 38% 29.92 in - NW 18.4 mph - N/A   Clear
3:45 PM 71.6 °F 46.4 °F 41% 29.92 in - NW 16.1 mph - N/A   Clear
4:15 PM 69.8 °F 48.2 °F 46% 29.92 in - NW 15.0 mph - N/A   Clear
4:45 PM 69.8 °F 48.2 °F 46% 29.92 in - NNW 12.7 mph - N/A   Clear
5:15 PM 68.0 °F 48.2 °F 49% 29.95 in - NW 11.5 mph - N/A   Clear
5:45 PM 68.0 °F 50.0 °F 52% 29.95 in - West 5.8 mph - N/A   Clear
6:15 PM 66.2 °F 50.0 °F 56% 29.95 in - WSW 3.5 mph - N/A   Clear
6:45 PM 64.4 °F 50.0 °F 59% 29.95 in - WSW 4.6 mph - N/A   Clear
7:15 PM 62.6 °F 50.0 °F 63% 29.95 in - SW 3.5 mph - N/A   Clear
7:45 PM 60.8 °F 48.2 °F 63% 29.98 in - WSW 3.5 mph - N/A   Clear
8:00 PM 60 °F 49 °F 56% 29.97 in 19 mi WSW 2.2 mph - -   Partly Cloudy
8:15 PM 60.8 °F 50.0 °F 68% 29.98 in - WSW 4.6 mph - N/A   Clear
8:45 PM 59.0 °F 46.4 °F 63% 29.98 in - West 5.8 mph - N/A   Clear
9:15 PM 57.2 °F 46.4 °F 67% 29.98 in - North 3.5 mph - N/A   Clear
9:45 PM 57.2 °F 48.2 °F 72% 29.98 in - North 3.5 mph - N/A   Clear
10:45 PM 55.4 °F 48.2 °F 77% 30.01 in - North 3.5 mph - N/A   Clear
11:45 PM 51.8 °F 46.4 °F 82% 30.04 in - NW 4.6 mph - N/A   Clear